| time (UTC) | temp C | wind direction | speed KPH | gust KPH | rain 1hr cm | rain 24hr cm | rain mn cm | humidity % | barometer mb |
| 20260503181102 | 17 | 278 | 4.8 | 4.8 | 0.00 | 0.00 | 0.00 | 73 | 1010.2 |
| 20260503180825 | 17 | 0 | 0.0 | 4.8 | 0.00 | 0.00 | 0.00 | 73 | 1010.2 |
| 20260503180545 | 17 | 0 | 0.0 | 4.8 | 0.00 | 0.00 | 0.00 | 74 | 1010.2 |
| 20260503180318 | 17 | 0 | 0.0 | 4.8 | 0.00 | 0.00 | 0.00 | 74 | 1010.2 |
| 20260503180028 | 17 | 0 | 0.0 | 4.8 | 0.00 | 0.00 | 0.00 | 74 | 1010.2 |
| 20260503175811 | 17 | 0 | 0.0 | 4.8 | 0.00 | 0.00 | 0.00 | 73 | 1010.2 |
| 20260503175511 | 17 | 282 | 3.2 | 4.8 | 0.00 | 0.00 | 0.00 | 74 | 1010.1 |
| 20260503175305 | 17 | 282 | 4.8 | 4.8 | 0.00 | 0.00 | 0.00 | 74 | 1010.1 |
| 20260503174954 | 17 | 280 | 1.6 | 6.4 | 0.00 | 0.00 | 0.00 | 74 | 1010.1 |
| 20260503174757 | 17 | 0 | 0.0 | 6.4 | 0.00 | 0.00 | 0.00 | 74 | 1010.1 |
| 20260503174437 | 17 | 263 | 1.6 | 6.4 | 0.00 | 0.00 | 0.00 | 74 | 1010.1 |
| 20260503174250 | 17 | 0 | 0.0 | 6.4 | 0.00 | 0.00 | 0.00 | 75 | 1010.1 |
| 20260503173920 | 17 | 0 | 0.0 | 6.4 | 0.00 | 0.00 | 0.00 | 75 | 1010.1 |
| 20260503173743 | 17 | 274 | 3.2 | 6.4 | 0.00 | 0.00 | 0.00 | 75 | 1010.1 |
| 20260503173403 | 17 | 274 | 3.2 | 6.4 | 0.00 | 0.00 | 0.00 | 75 | 1010.2 |
| 20260503173236 | 17 | 0 | 0.0 | 0.0 | 0.00 | 0.00 | 0.00 | 75 | 1010.1 |
| 20260503172846 | 17 | 0 | 0.0 | 8.0 | 0.00 | 0.00 | 0.00 | 76 | 1010.0 |
| 20260503172729 | 17 | 0 | 0.0 | 8.0 | 0.00 | 0.00 | 0.00 | 76 | 1010.1 |
| 20260503172331 | 17 | 0 | 0.0 | 8.0 | 0.00 | 0.00 | 0.00 | 76 | 1010.0 |
| 20260503172222 | 17 | 295 | 1.6 | 8.0 | 0.00 | 0.00 | 0.00 | 76 | 1010.0 |
| 20260503171812 | 17 | 295 | 4.8 | 8.0 | 0.00 | 0.00 | 0.00 | 76 | 1010.1 |
| 20260503171715 | 17 | 285 | 3.2 | 8.0 | 0.00 | 0.00 | 0.00 | 76 | 1010.1 |
| 20260503171255 | 17 | 0 | 0.0 | 8.0 | 0.00 | 0.00 | 0.00 | 77 | 1010.0 |
| 20260503171208 | 17 | 221 | 1.6 | 8.0 | 0.00 | 0.00 | 0.00 | 77 | 1010.1 |
| 20260503170738 | 17 | 268 | 6.4 | 8.0 | 0.00 | 0.00 | 0.00 | 77 | 1010.0 |
| 20260503170701 | 17 | 268 | 3.2 | 8.0 | 0.00 | 0.00 | 0.00 | 77 | 1010.0 |
| 20260503170221 | 17 | 198 | 3.2 | 8.0 | 0.00 | 0.00 | 0.00 | 78 | 1010.1 |
| 20260503170154 | 17 | 198 | 6.4 | 8.0 | 0.00 | 0.00 | 0.00 | 78 | 1010.1 |
| 20260503150920 | 14 | 0 | 0.0 | 0.0 | 0.00 | 0.00 | 0.00 | 100 | 1009.7 |
| 20260503150607 | 14 | 0 | 0.0 | 0.0 | 0.00 | 0.00 | 0.00 | 100 | 1009.7 |
| 20260503150413 | 13 | 0 | 0.0 | 0.0 | 0.00 | 0.00 | 0.00 | 100 | 1009.7 |
| 20260503140242 | 10 | 0 | 0.0 | 0.0 | 0.00 | 0.00 | 0.00 | 100 | 1009.6 |
| 20260503131139 | 8 | 0 | 0.0 | 0.0 | 0.00 | 0.00 | 0.00 | 100 | 1009.7 |
| 20260503130953 | 8 | 0 | 0.0 | 0.0 | 0.00 | 0.00 | 0.00 | 100 | 1009.7 |
| 20260503130632 | 8 | 0 | 0.0 | 0.0 | 0.00 | 0.00 | 0.00 | 100 | 1009.6 |
| 20260503130435 | 8 | 0 | 0.0 | 0.0 | 0.00 | 0.00 | 0.00 | 100 | 1009.6 |
| 20260503130124 | 8 | 0 | 0.0 | 0.0 | 0.00 | 0.00 | 0.00 | 100 | 1009.6 |
| 20260503110822 | 8 | 0 | 0.0 | 0.0 | 0.00 | 0.00 | 0.00 | 100 | 1009.9 |
| 20260503110344 | 8 | 0 | 0.0 | 0.0 | 0.00 | 0.00 | 0.00 | 100 | 1009.8 |
| 20260503110304 | 8 | 0 | 0.0 | 0.0 | 0.00 | 0.00 | 0.00 | 100 | 1009.9 |
| 20260503100219 | 8 | 0 | 0.0 | 0.0 | 0.00 | 0.00 | 0.00 | 100 | 1010.0 |
| 20260503090133 | 9 | 0 | 0.0 | 0.0 | 0.00 | 0.00 | 0.00 | 100 | 1010.5 |
| 20260503081452 | 10 | 0 | 0.0 | 0.0 | 0.00 | 0.00 | 0.00 | 100 | 1010.8 |
| 20260503081400 | 10 | 0 | 0.0 | 0.0 | 0.00 | 0.00 | 0.00 | 100 | 1010.7 |
| 20260503080945 | 10 | 0 | 0.0 | 0.0 | 0.00 | 0.00 | 0.00 | 99 | 1010.6 |
| 20260503080843 | 10 | 0 | 0.0 | 0.0 | 0.00 | 0.00 | 0.00 | 100 | 1010.7 |
| 20260503080438 | 10 | 0 | 0.0 | 0.0 | 0.00 | 0.00 | 0.00 | 99 | 1010.7 |
| 20260503080326 | 10 | 0 | 0.0 | 0.0 | 0.00 | 0.00 | 0.00 | 99 | 1010.7 |
| 20260503072849 | 10 | 0 | 0.0 | 0.0 | 0.00 | 0.00 | 0.00 | 99 | 1011.0 |
| 20260503072627 | 10 | 0 | 0.0 | 0.0 | 0.00 | 0.00 | 0.00 | 99 | 1011.0 |
| 20260503072342 | 10 | 0 | 0.0 | 0.0 | 0.00 | 0.00 | 0.00 | 99 | 1011.2 |
| 20260503072111 | 10 | 0 | 0.0 | 0.0 | 0.00 | 0.00 | 0.00 | 99 | 1011.2 |
| 20260503071835 | 10 | 0 | 0.0 | 0.0 | 0.00 | 0.00 | 0.00 | 99 | 1011.1 |
| 20260503071553 | 10 | 0 | 0.0 | 0.0 | 0.00 | 0.00 | 0.00 | 99 | 1011.3 |
| 20260503071328 | 10 | 0 | 0.0 | 0.0 | 0.00 | 0.00 | 0.00 | 99 | 1011.2 |
| 20260503071036 | 10 | 0 | 0.0 | 0.0 | 0.00 | 0.00 | 0.00 | 99 | 1011.3 |
| 20260503070821 | 10 | 0 | 0.0 | 0.0 | 0.00 | 0.00 | 0.00 | 99 | 1011.4 |
| 20260503070519 | 10 | 0 | 0.0 | 0.0 | 0.00 | 0.00 | 0.00 | 99 | 1011.3 |
| 20260503070314 | 10 | 0 | 0.0 | 0.0 | 0.00 | 0.00 | 0.00 | 99 | 1011.3 |
| 20260503060150 | 10 | 0 | 0.0 | 0.0 | 0.00 | 0.00 | 0.00 | 98 | 1011.4 |
| 20260503055121 | 10 | 0 | 0.0 | 0.0 | 0.00 | 0.00 | 0.00 | 98 | 1011.4 |
| 20260503054629 | 10 | 0 | 0.0 | 0.0 | 0.00 | 0.00 | 0.00 | 98 | 1011.4 |
| 20260503054604 | 10 | 0 | 0.0 | 0.0 | 0.00 | 0.00 | 0.00 | 98 | 1011.5 |
| 20260503054122 | 10 | 0 | 0.0 | 0.0 | 0.00 | 0.00 | 0.00 | 98 | 1011.4 |
| 20260503054047 | 10 | 0 | 0.0 | 0.0 | 0.00 | 0.00 | 0.00 | 98 | 1011.4 |
| 20260503053615 | 11 | 0 | 0.0 | 0.0 | 0.00 | 0.00 | 0.00 | 98 | 1011.4 |
| 20260503053530 | 11 | 0 | 0.0 | 0.0 | 0.00 | 0.00 | 0.00 | 98 | 1011.4 |
| 20260503053108 | 11 | 0 | 0.0 | 0.0 | 0.00 | 0.00 | 0.00 | 98 | 1011.5 |
| 20260503052601 | 11 | 0 | 0.0 | 0.0 | 0.00 | 0.00 | 0.00 | 98 | 1011.6 |
| 20260503052456 | 11 | 0 | 0.0 | 0.0 | 0.00 | 0.00 | 0.00 | 98 | 1011.6 |
| 20260503052054 | 11 | 0 | 0.0 | 0.0 | 0.00 | 0.00 | 0.00 | 98 | 1011.7 |
| 20260503051939 | 11 | 0 | 0.0 | 0.0 | 0.00 | 0.00 | 0.00 | 98 | 1011.7 |
| 20260503051547 | 11 | 0 | 0.0 | 0.0 | 0.00 | 0.00 | 0.00 | 98 | 1011.6 |
| 20260503051422 | 11 | 0 | 0.0 | 0.0 | 0.00 | 0.00 | 0.00 | 98 | 1011.7 |
| 20260503050905 | 11 | 0 | 0.0 | 0.0 | 0.00 | 0.00 | 0.00 | 98 | 1011.7 |
| 20260503050533 | 11 | 0 | 0.0 | 0.0 | 0.00 | 0.00 | 0.00 | 98 | 1011.7 |
| 20260503050348 | 11 | 0 | 0.0 | 3.2 | 0.00 | 0.00 | 0.00 | 98 | 1011.6 |
| 20260503050026 | 11 | 0 | 0.0 | 3.2 | 0.00 | 0.00 | 0.00 | 98 | 1011.6 |
| 20260503045831 | 11 | 0 | 0.0 | 3.2 | 0.00 | 0.00 | 0.00 | 98 | 1011.7 |
| 20260503045519 | 11 | 0 | 0.0 | 3.2 | 0.00 | 0.00 | 0.00 | 98 | 1011.6 |
| 20260503045314 | 11 | 0 | 0.0 | 3.2 | 0.00 | 0.00 | 0.00 | 98 | 1011.5 |
| 20260503045012 | 11 | 0 | 0.0 | 3.2 | 0.00 | 0.00 | 0.00 | 98 | 1011.4 |
| 20260503044757 | 11 | 352 | 1.6 | 3.2 | 0.00 | 0.00 | 0.00 | 97 | 1011.3 |
| 20260503044240 | 11 | 0 | 0.0 | 0.0 | 0.00 | 0.00 | 0.00 | 97 | 1011.4 |
| 20260503044049 | 11 | 0 | 0.0 | 0.0 | 0.00 | 0.00 | 0.00 | 97 | 1011.4 |
| 20260503043958 | 11 | 0 | 0.0 | 0.0 | 0.00 | 0.00 | 0.00 | 97 | 1011.4 |
| 20260503043723 | 11 | 0 | 0.0 | 0.0 | 0.00 | 0.00 | 0.00 | 97 | 1011.5 |
| 20260503043451 | 11 | 0 | 0.0 | 0.0 | 0.00 | 0.00 | 0.00 | 97 | 1011.7 |
| 20260503043206 | 11 | 0 | 0.0 | 0.0 | 0.00 | 0.00 | 0.00 | 97 | 1011.6 |
| 20260503042944 | 11 | 0 | 0.0 | 0.0 | 0.00 | 0.00 | 0.00 | 97 | 1011.6 |
| 20260503042649 | 11 | 0 | 0.0 | 0.0 | 0.00 | 0.00 | 0.00 | 97 | 1011.4 |
| 20260503042437 | 11 | 0 | 0.0 | 0.0 | 0.00 | 0.00 | 0.00 | 97 | 1011.4 |
| 20260503042132 | 11 | 0 | 0.0 | 0.0 | 0.00 | 0.00 | 0.00 | 97 | 1011.3 |
| 20260503041930 | 11 | 0 | 0.0 | 9.7 | 0.00 | 0.00 | 0.00 | 97 | 1011.4 |
| 20260503041615 | 11 | 0 | 0.0 | 9.7 | 0.00 | 0.00 | 0.00 | 97 | 1011.3 |
| 20260503041423 | 11 | 0 | 0.0 | 9.7 | 0.00 | 0.00 | 0.00 | 97 | 1011.3 |
| 20260503041058 | 11 | 0 | 0.0 | 9.7 | 0.00 | 0.00 | 0.00 | 97 | 1011.1 |
| 20260503040916 | 11 | 0 | 0.0 | 9.7 | 0.00 | 0.00 | 0.00 | 97 | 1011.1 |
| 20260503040541 | 11 | 0 | 0.0 | 9.7 | 0.00 | 0.00 | 0.00 | 97 | 1011.0 |
| 20260503040409 | 11 | 0 | 0.0 | 9.7 | 0.00 | 0.00 | 0.00 | 96 | 1011.0 |
| 20260503040024 | 11 | 0 | 0.0 | 0.0 | 0.00 | 0.00 | 0.00 | 96 | 1010.9 |
| 20260503035902 | 11 | 0 | 0.0 | 0.0 | 0.00 | 0.00 | 0.00 | 96 | 1011.0 |
| 20260503034950 | 11 | 0 | 0.0 | 11.3 | 0.00 | 0.00 | 0.00 | 96 | 1011.0 |
| 20260503034848 | 11 | 0 | 0.0 | 11.3 | 0.00 | 0.00 | 0.00 | 96 | 1011.0 |
| 20260503034433 | 11 | 2 | 6.4 | 11.3 | 0.00 | 0.00 | 0.00 | 95 | 1011.0 |
| 20260503034341 | 11 | 312 | 1.6 | 11.3 | 0.00 | 0.00 | 0.00 | 95 | 1011.0 |
| 20260503033916 | 11 | 354 | 3.2 | 9.7 | 0.00 | 0.00 | 0.00 | 95 | 1011.0 |
| 20260503033834 | 11 | 354 | 8.0 | 9.7 | 0.00 | 0.00 | 0.00 | 95 | 1011.0 |
| 20260503033359 | 11 | 316 | 4.8 | 9.7 | 0.00 | 0.00 | 0.00 | 94 | 1011.0 |
| 20260503033327 | 11 | 316 | 4.8 | 9.7 | 0.00 | 0.00 | 0.00 | 94 | 1011.1 |
| 20260503032843 | 11 | 0 | 0.0 | 14.5 | 0.00 | 0.00 | 0.00 | 94 | 1011.0 |
| 20260503032820 | 11 | 0 | 0.0 | 14.5 | 0.00 | 0.00 | 0.00 | 94 | 1011.0 |
| 20260503032325 | 11 | 0 | 0.0 | 14.5 | 0.00 | 0.00 | 0.00 | 94 | 1011.0 |
| 20260503032313 | 11 | 0 | 0.0 | 14.5 | 0.00 | 0.00 | 0.00 | 94 | 1011.0 |
| 20260503031809 | 11 | 263 | 3.2 | 14.5 | 0.00 | 0.00 | 0.00 | 94 | 1011.0 |
| 20260503031806 | 11 | 263 | 4.8 | 14.5 | 0.00 | 0.00 | 0.00 | 94 | 1011.0 |
| 20260503031259 | 11 | 0 | 0.0 | 14.5 | 0.00 | 0.00 | 0.00 | 93 | 1010.9 |
| 20260503031251 | 11 | 357 | 4.8 | 14.5 | 0.00 | 0.00 | 0.00 | 93 | 1010.9 |
| 20260503030752 | 12 | 303 | 8.0 | 14.5 | 0.00 | 0.00 | 0.00 | 92 | 1011.0 |
| 20260503030734 | 12 | 303 | 9.7 | 14.5 | 0.00 | 0.00 | 0.00 | 92 | 1011.0 |
| 20260503030245 | 12 | 354 | 6.4 | 14.5 | 0.00 | 0.00 | 0.00 | 92 | 1011.1 |
| 20260503030217 | 12 | 354 | 9.7 | 14.5 | 0.00 | 0.00 | 0.00 | 92 | 1011.1 |
| 20260503025738 | 12 | 322 | 6.4 | 12.9 | 0.00 | 0.00 | 0.00 | 91 | 1011.1 |
| 20260503025700 | 12 | 322 | 9.7 | 12.9 | 0.00 | 0.00 | 0.00 | 91 | 1011.1 |
| 20260503025231 | 12 | 288 | 6.4 | 9.7 | 0.00 | 0.00 | 0.00 | 91 | 1011.1 |
| 20260503025143 | 12 | 357 | 6.4 | 9.7 | 0.00 | 0.00 | 0.00 | 91 | 1011.2 |
| 20260503024724 | 12 | 303 | 3.2 | 9.7 | 0.00 | 0.00 | 0.00 | 91 | 1011.2 |
| 20260503024626 | 12 | 357 | 3.2 | 9.7 | 0.00 | 0.00 | 0.00 | 91 | 1011.3 |
| 20260503024217 | 12 | 343 | 8.0 | 9.7 | 0.00 | 0.00 | 0.00 | 91 | 1011.4 |
| 20260503024109 | 12 | 343 | 4.8 | 9.7 | 0.00 | 0.00 | 0.00 | 90 | 1011.4 |
| 20260503023710 | 12 | 330 | 4.8 | 12.9 | 0.00 | 0.00 | 0.00 | 90 | 1011.3 |
| 20260503023552 | 12 | 330 | 3.2 | 12.9 | 0.00 | 0.00 | 0.00 | 90 | 1011.4 |
| 20260503023203 | 12 | 32 | 9.7 | 12.9 | 0.00 | 0.00 | 0.00 | 90 | 1011.3 |
| 20260503023035 | 12 | 32 | 6.4 | 12.9 | 0.00 | 0.00 | 0.00 | 90 | 1011.3 |
| 20260503022657 | 12 | 338 | 4.8 | 12.9 | 0.00 | 0.00 | 0.00 | 90 | 1011.2 |
| 20260503022518 | 12 | 338 | 8.0 | 12.9 | 0.00 | 0.00 | 0.00 | 90 | 1011.3 |
| 20260503022149 | 13 | 331 | 8.0 | 9.7 | 0.00 | 0.00 | 0.00 | 90 | 1011.3 |
| 20260503021642 | 13 | 330 | 6.4 | 12.9 | 0.00 | 0.00 | 0.00 | 90 | 1011.3 |
| 20260503021444 | 13 | 329 | 8.0 | 12.9 | 0.00 | 0.00 | 0.00 | 90 | 1011.3 |
| 20260503021136 | 13 | 347 | 8.0 | 12.9 | 0.00 | 0.00 | 0.00 | 89 | 1011.3 |
| 20260503020927 | 13 | 347 | 4.8 | 12.9 | 0.00 | 0.00 | 0.00 | 90 | 1011.3 |
| 20260503020628 | 13 | 309 | 4.8 | 12.9 | 0.00 | 0.00 | 0.00 | 90 | 1011.2 |
| 20260503020410 | 13 | 309 | 6.4 | 12.9 | 0.00 | 0.00 | 0.00 | 89 | 1011.1 |
| 20260503020121 | 13 | 319 | 11.3 | 12.9 | 0.00 | 0.00 | 0.00 | 89 | 1011.1 |
| 20260503015853 | 13 | 336 | 9.7 | 12.9 | 0.00 | 0.00 | 0.00 | 89 | 1011.2 |
| 20260503015614 | 13 | 354 | 8.0 | 12.9 | 0.00 | 0.00 | 0.00 | 89 | 1011.2 |
| 20260503015337 | 13 | 331 | 6.4 | 12.9 | 0.00 | 0.00 | 0.00 | 89 | 1011.2 |
| 20260503015107 | 13 | 295 | 4.8 | 12.9 | 0.00 | 0.00 | 0.00 | 89 | 1011.2 |
| 20260503014819 | 13 | 8 | 8.0 | 12.9 | 0.00 | 0.00 | 0.00 | 88 | 1011.2 |
| 20260503014600 | 13 | 319 | 6.4 | 12.9 | 0.00 | 0.00 | 0.00 | 88 | 1011.1 |
| 20260503014302 | 13 | 357 | 6.4 | 9.7 | 0.00 | 0.00 | 0.00 | 88 | 1011.1 |
| 20260503014053 | 13 | 329 | 8.0 | 9.7 | 0.00 | 0.00 | 0.00 | 88 | 1011.1 |
| 20260503013744 | 13 | 324 | 14.5 | 17.7 | 0.00 | 0.00 | 0.00 | 88 | 1011.2 |
| 20260503013546 | 13 | 324 | 11.3 | 17.7 | 0.00 | 0.00 | 0.00 | 87 | 1011.2 |
| 20260503013228 | 13 | 330 | 9.7 | 17.7 | 0.00 | 0.00 | 0.00 | 87 | 1011.3 |
| 20260503013039 | 13 | 330 | 11.3 | 17.7 | 0.00 | 0.00 | 0.00 | 87 | 1011.3 |
| 20260503012712 | 13 | 312 | 11.3 | 17.7 | 0.00 | 0.00 | 0.00 | 87 | 1011.4 |
| 20260503012532 | 13 | 333 | 9.7 | 17.7 | 0.00 | 0.00 | 0.00 | 86 | 1011.4 |
| 20260503012154 | 13 | 295 | 12.9 | 17.7 | 0.00 | 0.00 | 0.00 | 86 | 1011.3 |
| 20260503012025 | 13 | 303 | 9.7 | 16.1 | 0.00 | 0.00 | 0.00 | 86 | 1011.3 |
| 20260503011636 | 13 | 302 | 8.0 | 16.1 | 0.00 | 0.00 | 0.00 | 85 | 1011.3 |
| 20260503011518 | 13 | 302 | 9.7 | 16.1 | 0.00 | 0.00 | 0.00 | 85 | 1011.4 |
| 20260503011119 | 13 | 308 | 8.0 | 12.9 | 0.00 | 0.00 | 0.00 | 85 | 1011.5 |
| 20260503011011 | 13 | 301 | 6.4 | 12.9 | 0.00 | 0.00 | 0.00 | 85 | 1011.4 |
| 20260503010602 | 13 | 302 | 9.7 | 12.9 | 0.00 | 0.00 | 0.00 | 85 | 1011.5 |
| 20260503010504 | 13 | 32 | 4.8 | 4.8 | 0.00 | 0.00 | 0.00 | 85 | 1011.5 |
| 20260503010045 | 13 | 309 | 11.3 | 20.9 | 0.00 | 0.00 | 0.00 | 84 | 1011.5 |
| 20260503005957 | 13 | 309 | 8.0 | 20.9 | 0.00 | 0.00 | 0.00 | 84 | 1011.5 |
| 20260503005528 | 14 | 294 | 12.9 | 20.9 | 0.00 | 0.00 | 0.00 | 83 | 1011.5 |
| 20260503005450 | 14 | 294 | 12.9 | 20.9 | 0.00 | 0.00 | 0.00 | 83 | 1011.6 |
| 20260503005011 | 14 | 322 | 8.0 | 20.9 | 0.00 | 0.00 | 0.00 | 83 | 1011.6 |
| 20260503004943 | 14 | 322 | 12.9 | 20.9 | 0.00 | 0.00 | 0.00 | 83 | 1011.6 |
| 20260503004454 | 15 | 23 | 4.8 | 16.1 | 0.00 | 0.00 | 0.00 | 83 | 1011.6 |
| 20260503004436 | 15 | 23 | 8.0 | 16.1 | 0.00 | 0.00 | 0.00 | 82 | 1011.6 |
| 20260503003928 | 15 | 334 | 11.3 | 16.1 | 0.00 | 0.00 | 0.00 | 83 | 1011.6 |
| 20260503003420 | 15 | 54 | 9.7 | 16.1 | 0.00 | 0.00 | 0.00 | 84 | 1011.6 |
| 20260503002904 | 15 | 79 | 6.4 | 16.1 | 0.00 | 0.00 | 0.00 | 83 | 1011.5 |
| 20260503002408 | 15 | 341 | 12.9 | 20.9 | 0.00 | 0.00 | 0.00 | 85 | 1011.6 |
| 20260503002346 | 15 | 350 | 6.4 | 20.9 | 0.00 | 0.00 | 0.00 | 84 | 1011.6 |
| 20260503001900 | 14 | 333 | 11.3 | 20.9 | 0.00 | 0.00 | 0.00 | 85 | 1011.6 |
| 20260503001829 | 14 | 319 | 4.8 | 20.9 | 0.00 | 0.00 | 0.00 | 85 | 1011.7 |
| 20260503001354 | 13 | 50 | 8.0 | 20.9 | 0.00 | 0.00 | 0.00 | 85 | 1011.6 |
| 20260503001312 | 13 | 303 | 4.8 | 20.9 | 0.00 | 0.00 | 0.00 | 85 | 1011.6 |
| 20260503000847 | 13 | 329 | 6.4 | 20.9 | 0.00 | 0.00 | 0.00 | 85 | 1011.7 |
| 20260503000755 | 13 | 313 | 14.5 | 20.9 | 0.00 | 0.00 | 0.00 | 86 | 1011.7 |
| 20260503000339 | 13 | 296 | 11.3 | 17.7 | 0.00 | 0.00 | 0.00 | 85 | 1011.6 |
| 20260503000240 | 13 | 347 | 11.3 | 17.7 | 0.00 | 0.00 | 0.00 | 85 | 1011.7 |
| 20260502235832 | 13 | 316 | 9.7 | 17.7 | 0.00 | 0.00 | 0.00 | 85 | 1011.7 |
| 20260502235721 | 13 | 37 | 11.3 | 17.7 | 0.00 | 0.00 | 0.00 | 85 | 1011.8 |
| 20260502235325 | 13 | 11 | 6.4 | 16.1 | 0.00 | 0.00 | 0.00 | 85 | 1011.9 |
| 20260502235204 | 13 | 327 | 8.0 | 12.9 | 0.00 | 0.00 | 0.00 | 85 | 1012.0 |
| 20260502234819 | 13 | 4 | 4.8 | 6.4 | 0.00 | 0.00 | 0.00 | 84 | 1012.0 |
| 20260502234648 | 13 | 354 | 6.4 | 20.9 | 0.00 | 0.00 | 0.00 | 84 | 1012.1 |
| 20260502234312 | 14 | 15 | 1.6 | 20.9 | 0.00 | 0.00 | 0.00 | 84 | 1012.0 |
| 20260502234130 | 14 | 306 | 9.7 | 20.9 | 0.00 | 0.00 | 0.00 | 83 | 1012.1 |
| 20260502233805 | 14 | 46 | 3.2 | 20.9 | 0.00 | 0.00 | 0.00 | 83 | 1012.1 |
| 20260502233613 | 14 | 310 | 11.3 | 20.9 | 0.00 | 0.00 | 0.00 | 83 | 1012.1 |
| 20260502233258 | 14 | 312 | 9.7 | 20.9 | 0.00 | 0.00 | 0.00 | 82 | 1011.8 |
| 20260502233056 | 14 | 312 | 17.7 | 20.9 | 0.00 | 0.00 | 0.00 | 81 | 1011.9 |
| 20260502232750 | 15 | 0 | 11.3 | 20.9 | 0.00 | 0.00 | 0.00 | 80 | 1012.0 |
| 20260502232539 | 15 | 268 | 16.1 | 20.9 | 0.00 | 0.00 | 0.00 | 80 | 1012.1 |
| 20260502232244 | 15 | 19 | 12.9 | 19.3 | 0.00 | 0.00 | 0.00 | 80 | 1012.0 |
| 20260502232022 | 15 | 19 | 11.3 | 19.3 | 0.00 | 0.00 | 0.00 | 80 | 1012.1 |
| 20260502231736 | 15 | 319 | 8.0 | 19.3 | 0.00 | 0.00 | 0.00 | 80 | 1012.2 |
| 20260502231230 | 15 | 305 | 12.9 | 19.3 | 0.00 | 0.00 | 0.00 | 80 | 1012.3 |
| 20260502230948 | 15 | 274 | 8.0 | 19.3 | 0.00 | 0.00 | 0.00 | 79 | 1012.4 |
| 20260502230722 | 15 | 330 | 11.3 | 19.3 | 0.00 | 0.00 | 0.00 | 78 | 1012.4 |
| 20260502230431 | 15 | 317 | 8.0 | 17.7 | 0.00 | 0.00 | 0.00 | 77 | 1012.5 |
| 20260502230215 | 15 | 334 | 12.9 | 17.7 | 0.00 | 0.00 | 0.00 | 77 | 1012.5 |
| 20260502225914 | 16 | 334 | 11.3 | 17.7 | 0.00 | 0.00 | 0.00 | 77 | 1012.5 |
| 20260502225708 | 16 | 327 | 9.7 | 16.1 | 0.00 | 0.00 | 0.00 | 77 | 1012.3 |
| 20260502225357 | 16 | 327 | 8.0 | 25.7 | 0.00 | 0.00 | 0.00 | 77 | 1012.4 |
| 20260502225201 | 16 | 22 | 12.9 | 25.7 | 0.00 | 0.00 | 0.00 | 77 | 1012.4 |
| 20260502224840 | 16 | 322 | 9.7 | 25.7 | 0.00 | 0.00 | 0.00 | 78 | 1012.4 |
| 20260502224654 | 16 | 317 | 12.9 | 25.7 | 0.00 | 0.00 | 0.00 | 78 | 1012.5 |
| 20260502224324 | 16 | 19 | 14.5 | 25.7 | 0.00 | 0.00 | 0.00 | 80 | 1012.6 |
| 20260502224147 | 16 | 26 | 16.1 | 25.7 | 0.00 | 0.00 | 0.00 | 81 | 1012.7 |
| 20260502223806 | 15 | 337 | 12.9 | 16.1 | 0.00 | 0.00 | 0.00 | 81 | 1012.7 |
| 20260502223640 | 15 | 303 | 11.3 | 16.1 | 0.00 | 0.00 | 0.00 | 82 | 1012.8 |
| 20260502223249 | 15 | 25 | 11.3 | 14.5 | 0.00 | 0.00 | 0.00 | 82 | 1012.9 |
| 20260502223133 | 15 | 25 | 9.7 | 14.5 | 0.00 | 0.00 | 0.00 | 82 | 1012.9 |
| 20260502222732 | 15 | 347 | 8.0 | 22.5 | 0.00 | 0.00 | 0.00 | 82 | 1013.0 |
| 20260502222626 | 15 | 347 | 8.0 | 22.5 | 0.00 | 0.00 | 0.00 | 81 | 1013.0 |
| 20260502222215 | 15 | 313 | 14.5 | 22.5 | 0.00 | 0.00 | 0.00 | 82 | 1013.0 |
| 20260502222119 | 15 | 313 | 12.9 | 22.5 | 0.00 | 0.00 | 0.00 | 82 | 1013.0 |
| 20260502221658 | 15 | 343 | 11.3 | 22.5 | 0.00 | 0.00 | 0.00 | 83 | 1013.1 |
| 20260502221612 | 15 | 343 | 12.9 | 22.5 | 0.00 | 0.00 | 0.00 | 82 | 1013.0 |
| 20260502221141 | 15 | 36 | 11.3 | 14.5 | 0.00 | 0.00 | 0.00 | 83 | 1013.0 |
| 20260502221105 | 15 | 36 | 9.7 | 14.5 | 0.00 | 0.00 | 0.00 | 83 | 1013.0 |
| 20260502220624 | 14 | 7 | 12.9 | 22.5 | 0.00 | 0.00 | 0.00 | 84 | 1013.1 |
| 20260502220559 | 14 | 7 | 11.3 | 22.5 | 0.00 | 0.00 | 0.00 | 84 | 1013.1 |
| 20260502220107 | 14 | 347 | 8.0 | 22.5 | 0.00 | 0.00 | 0.00 | 84 | 1013.1 |
| 20260502220051 | 14 | 347 | 8.0 | 22.5 | 0.00 | 0.00 | 0.00 | 84 | 1013.1 |
| 20260502215550 | 14 | 336 | 12.9 | 22.5 | 0.00 | 0.00 | 0.00 | 84 | 1013.2 |
| 20260502215544 | 14 | 336 | 11.3 | 22.5 | 0.00 | 0.00 | 0.00 | 84 | 1013.2 |
| 20260502215037 | 14 | 326 | 12.9 | 17.7 | 0.00 | 0.00 | 0.00 | 83 | 1013.1 |
| 20260502215033 | 14 | 326 | 12.9 | 17.7 | 0.00 | 0.00 | 0.00 | 83 | 1013.1 |
| 20260502214516 | 14 | 317 | 16.1 | 17.7 | 0.00 | 0.00 | 0.00 | 81 | 1013.1 |
| 20260502214023 | 15 | 334 | 9.7 | 16.1 | 0.00 | 0.00 | 0.00 | 82 | 1013.1 |
| 20260502213959 | 15 | 334 | 12.9 | 16.1 | 0.00 | 0.00 | 0.00 | 82 | 1013.1 |
| 20260502213516 | 15 | 32 | 8.0 | 17.7 | 0.00 | 0.00 | 0.00 | 83 | 1013.2 |
| 20260502213442 | 15 | 319 | 11.3 | 17.7 | 0.00 | 0.00 | 0.00 | 83 | 1013.2 |
| 20260502213010 | 14 | 11 | 4.8 | 17.7 | 0.00 | 0.00 | 0.00 | 83 | 1013.2 |
| 20260502212925 | 14 | 11 | 6.4 | 17.7 | 0.00 | 0.00 | 0.00 | 83 | 1013.2 |
| 20260502212502 | 14 | 302 | 14.5 | 17.7 | 0.00 | 0.00 | 0.00 | 83 | 1013.1 |
| 20260502212408 | 14 | 302 | 12.9 | 17.7 | 0.00 | 0.00 | 0.00 | 84 | 1013.2 |
| 20260502211955 | 14 | 313 | 9.7 | 17.7 | 0.00 | 0.00 | 0.00 | 82 | 1013.2 |
| 20260502211851 | 14 | 313 | 12.9 | 17.7 | 0.00 | 0.00 | 0.00 | 82 | 1013.3 |
| 20260502211448 | 15 | 296 | 11.3 | 16.1 | 0.00 | 0.00 | 0.00 | 80 | 1013.4 |
| 20260502211334 | 15 | 322 | 11.3 | 16.1 | 0.00 | 0.00 | 0.00 | 81 | 1013.4 |
| 20260502210941 | 15 | 326 | 11.3 | 16.1 | 0.00 | 0.00 | 0.00 | 82 | 1013.5 |
| 20260502210817 | 15 | 337 | 9.7 | 16.1 | 0.00 | 0.00 | 0.00 | 83 | 1013.5 |
| 20260502210434 | 15 | 316 | 12.9 | 20.9 | 0.00 | 0.00 | 0.00 | 83 | 1013.7 |
| 20260502210300 | 15 | 0 | 0.0 | 20.9 | 0.00 | 0.00 | 0.00 | 82 | 1013.7 |
| 20260502205927 | 15 | 337 | 14.5 | 20.9 | 0.00 | 0.00 | 0.00 | 82 | 1013.5 |
| 20260502205743 | 15 | 320 | 11.3 | 20.9 | 0.00 | 0.00 | 0.00 | 82 | 1013.5 |
| 20260502205420 | 15 | 320 | 11.3 | 20.9 | 0.00 | 0.00 | 0.00 | 81 | 1013.5 |
| 20260502205226 | 15 | 331 | 16.1 | 20.9 | 0.00 | 0.00 | 0.00 | 81 | 1013.6 |
| 20260502204914 | 15 | 317 | 12.9 | 20.9 | 0.00 | 0.00 | 0.00 | 82 | 1013.6 |
| 20260502204709 | 15 | 310 | 16.1 | 20.9 | 0.00 | 0.00 | 0.00 | 82 | 1013.6 |
| 20260502204406 | 15 | 322 | 12.9 | 17.7 | 0.00 | 0.00 | 0.00 | 83 | 1013.8 |
| 20260502204152 | 15 | 340 | 12.9 | 17.7 | 0.00 | 0.00 | 0.00 | 83 | 1013.8 |
| 20260502203859 | 15 | 298 | 9.7 | 14.5 | 0.00 | 0.00 | 0.00 | 86 | 1013.8 |
| 20260502203635 | 15 | 305 | 6.4 | 22.5 | 0.00 | 0.00 | 0.00 | 87 | 1013.8 |
| 20260502203352 | 14 | 23 | 8.0 | 22.5 | 0.00 | 0.00 | 0.00 | 87 | 1013.8 |
| 20260502203118 | 14 | 331 | 12.9 | 22.5 | 0.00 | 0.00 | 0.00 | 87 | 1013.9 |
| 20260502202845 | 13 | 14 | 6.4 | 22.5 | 0.00 | 0.00 | 0.00 | 88 | 1014.0 |
| 20260502202602 | 13 | 302 | 11.3 | 22.5 | 0.00 | 0.00 | 0.00 | 88 | 1014.0 |
| 20260502202338 | 13 | 312 | 8.0 | 22.5 | 0.00 | 0.00 | 0.00 | 88 | 1014.1 |
| 20260502202044 | 13 | 329 | 17.7 | 22.5 | 0.00 | 0.00 | 0.00 | 88 | 1014.1 |
| 20260502201832 | 13 | 5 | 1.6 | 16.1 | 0.00 | 0.00 | 0.00 | 89 | 1014.1 |
| 20260502201528 | 13 | 326 | 8.0 | 16.1 | 0.00 | 0.00 | 0.00 | 88 | 1014.1 |
| 20260502201324 | 13 | 326 | 12.9 | 16.1 | 0.00 | 0.00 | 0.00 | 88 | 1014.3 |
| 20260502201010 | 13 | 29 | 9.7 | 16.1 | 0.00 | 0.00 | 0.00 | 89 | 1014.2 |
| 20260502200818 | 13 | 357 | 4.8 | 16.1 | 0.00 | 0.00 | 0.00 | 88 | 1014.3 |
| 20260502200453 | 13 | 53 | 11.3 | 16.1 | 0.00 | 0.00 | 0.00 | 89 | 1014.3 |
| 20260502200310 | 13 | 343 | 9.7 | 16.1 | 0.00 | 0.00 | 0.00 | 90 | 1014.4 |
| 20260502195936 | 13 | 326 | 9.7 | 16.1 | 0.00 | 0.00 | 0.00 | 90 | 1014.4 |
| 20260502195803 | 13 | 0 | 4.8 | 16.1 | 0.00 | 0.00 | 0.00 | 90 | 1014.5 |
| 20260502195419 | 12 | 0 | 0.0 | 12.9 | 0.00 | 0.00 | 0.00 | 90 | 1014.5 |
| 20260502195256 | 12 | 0 | 0.0 | 12.9 | 0.00 | 0.00 | 0.00 | 89 | 1014.5 |
| 20260502194902 | 12 | 357 | 3.2 | 12.9 | 0.00 | 0.00 | 0.00 | 89 | 1014.5 |
| 20260502194749 | 12 | 33 | 6.4 | 12.9 | 0.00 | 0.00 | 0.00 | 88 | 1014.5 |
| 20260502194345 | 12 | 12 | 3.2 | 8.0 | 0.00 | 0.00 | 0.00 | 88 | 1014.5 |
| 20260502194242 | 12 | 18 | 4.8 | 17.7 | 0.00 | 0.00 | 0.00 | 87 | 1014.5 |
| 20260502193828 | 12 | 327 | 3.2 | 17.7 | 0.00 | 0.00 | 0.00 | 86 | 1014.6 |
| 20260502193735 | 12 | 317 | 4.8 | 17.7 | 0.00 | 0.00 | 0.00 | 86 | 1014.7 |
| 20260502193228 | 12 | 22 | 9.7 | 17.7 | 0.00 | 0.00 | 0.00 | 85 | 1014.6 |
| 20260502192721 | 12 | 2 | 8.0 | 17.7 | 0.00 | 0.00 | 0.00 | 84 | 1014.8 |
| 20260502192237 | 13 | 310 | 8.0 | 16.1 | 0.00 | 0.00 | 0.00 | 82 | 1014.9 |
| 20260502192214 | 13 | 310 | 11.3 | 16.1 | 0.00 | 0.00 | 0.00 | 82 | 1014.9 |
| 20260502191720 | 13 | 344 | 3.2 | 8.0 | 0.00 | 0.00 | 0.00 | 81 | 1015.1 |
| 20260502191707 | 13 | 344 | 3.2 | 8.0 | 0.00 | 0.00 | 0.00 | 81 | 1015.1 |
| 20260502191200 | 14 | 266 | 3.2 | 11.3 | 0.00 | 0.00 | 0.00 | 81 | 1015.1 |
| 20260502190646 | 15 | 14 | 4.8 | 11.3 | 0.00 | 0.00 | 0.00 | 82 | 1015.2 |
| 20260502190146 | 14 | 326 | 4.8 | 11.3 | 0.00 | 0.00 | 0.00 | 83 | 1015.1 |
| 20260502190129 | 14 | 326 | 4.8 | 11.3 | 0.00 | 0.00 | 0.00 | 83 | 1015.1 |
| 20260502185639 | 14 | 341 | 8.0 | 11.3 | 0.00 | 0.00 | 0.00 | 83 | 1015.1 |
| 20260502185612 | 14 | 341 | 9.7 | 11.3 | 0.00 | 0.00 | 0.00 | 83 | 1015.2 |
| 20260502185132 | 13 | 323 | 6.4 | 17.7 | 0.00 | 0.00 | 0.00 | 81 | 1015.2 |
| 20260502185055 | 13 | 323 | 6.4 | 17.7 | 0.00 | 0.00 | 0.00 | 81 | 1015.2 |
| 20260502184625 | 14 | 331 | 11.3 | 17.7 | 0.00 | 0.00 | 0.00 | 82 | 1015.1 |
| 20260502184538 | 14 | 331 | 11.3 | 17.7 | 0.00 | 0.00 | 0.00 | 82 | 1015.2 |
| 20260502184118 | 14 | 327 | 9.7 | 17.7 | 0.00 | 0.00 | 0.00 | 83 | 1015.3 |
| 20260502184021 | 14 | 327 | 11.3 | 17.7 | 0.00 | 0.00 | 0.00 | 84 | 1015.3 |
| 20260502183504 | 13 | 291 | 4.8 | 11.3 | 0.00 | 0.00 | 0.00 | 85 | 1015.5 |
| 20260502183104 | 13 | 333 | 9.7 | 11.3 | 0.00 | 0.00 | 0.00 | 85 | 1015.4 |
| 20260502182947 | 13 | 333 | 8.0 | 16.1 | 0.00 | 0.00 | 0.00 | 86 | 1015.5 |
| 20260502182557 | 13 | 357 | 6.4 | 16.1 | 0.00 | 0.00 | 0.00 | 86 | 1015.5 |
| 20260502182430 | 13 | 357 | 8.0 | 16.1 | 0.00 | 0.00 | 0.00 | 87 | 1015.5 |
| 20260502182050 | 12 | 37 | 6.4 | 16.1 | 0.00 | 0.00 | 0.00 | 88 | 1015.6 |
| 20260502181913 | 12 | 37 | 6.4 | 16.1 | 0.00 | 0.00 | 0.00 | 88 | 1015.6 |
| 20260502181544 | 12 | 25 | 6.4 | 16.1 | 0.00 | 0.00 | 0.00 | 88 | 1015.6 |